Time,TemperatureF,DewpointF,PressureIn,WindDirection,WindDirectionDegrees,WindSpeedMPH,WindSpeedGustMPH,Humidity,HourlyPrecipIn,Conditions,Clouds,dailyrainin,SoftwareType,DateUTC
2015-07-04 00:02:00,59.0,59.0,30.19,NNW,329,2.0,50.0,99,-99.99,,,-99.99,,2015-07-04 07:02:00,
2015-07-04 00:12:00,60.0,60.0,30.19,ENE,65,6.0,13.0,99,-99.99,,,-99.99,,2015-07-04 07:12:00,
2015-07-04 00:22:00,59.0,59.0,30.19,NNE,28,1.0,6.0,99,-99.99,,,-99.99,,2015-07-04 07:22:00,
2015-07-04 00:33:00,60.0,60.0,30.18,East,90,7.0,9.0,99,-99.99,,,-99.99,,2015-07-04 07:33:00,
2015-07-04 00:43:00,59.0,59.0,30.17,SE,139,8.0,9.0,99,-99.99,,,-99.99,,2015-07-04 07:43:00,
2015-07-04 01:02:00,59.0,59.0,30.17,North,355,3.0,5.0,99,-99.99,,,-99.99,,2015-07-04 08:02:00,
2015-07-04 01:12:00,59.0,59.0,30.17,NNE,18,1.0,2.0,99,-99.99,,,-99.99,,2015-07-04 08:12:00,
2015-07-04 01:22:00,59.0,59.0,30.16,North,7,1.0,3.0,99,-99.99,,,-99.99,,2015-07-04 08:22:00,
2015-07-04 01:33:00,59.0,59.0,30.16,NE,40,4.0,9.0,99,-99.99,,,-99.99,,2015-07-04 08:33:00,
2015-07-04 01:43:00,59.0,59.0,30.15,NNW,343,8.0,50.0,99,-99.99,,,-99.99,,2015-07-04 08:43:00,
2015-07-04 01:53:00,59.0,59.0,30.15,NNW,332,7.0,50.0,99,-99.99,,,-99.99,,2015-07-04 08:53:00,
2015-07-04 02:02:00,59.0,59.0,30.15,NNE,30,6.0,9.0,99,-99.99,,,-99.99,,2015-07-04 09:02:00,
2015-07-04 02:12:00,59.0,59.0,30.15,NNE,16,4.0,8.0,99,-99.99,,,-99.99,,2015-07-04 09:12:00,
2015-07-04 02:22:00,59.0,59.0,30.15,North,1,2.0,4.0,99,-99.99,,,-99.99,,2015-07-04 09:22:00,
2015-07-04 02:33:00,60.0,60.0,30.15,NNE,27,2.0,5.0,99,-99.99,,,-99.99,,2015-07-04 09:33:00,
2015-07-04 02:43:00,60.0,60.0,30.15,NW,311,3.0,5.0,99,-99.99,,,-99.99,,2015-07-04 09:43:00,
2015-07-04 02:53:00,59.0,59.0,30.14,NW,317,11.0,50.0,99,-99.99,,,-99.99,,2015-07-04 09:53:00,
2015-07-04 03:03:00,59.0,59.0,30.15,NW,320,6.0,50.0,99,-99.99,,,-99.99,,2015-07-04 10:03:00,
2015-07-04 03:12:00,59.0,59.0,30.15,NW,314,4.0,50.0,99,-99.99,,,-99.99,,2015-07-04 10:12:00,
2015-07-04 03:22:00,59.0,59.0,30.14,NW,314,3.0,4.0,99,-99.99,,,-99.99,,2015-07-04 10:22:00,
2015-07-04 03:32:00,60.0,60.0,30.15,NW,320,2.0,4.0,99,-99.99,,,-99.99,,2015-07-04 10:32:00,
2015-07-04 03:43:00,60.0,60.0,30.14,North,349,5.0,8.0,99,-99.99,,,-99.99,,2015-07-04 10:43:00,
2015-07-04 03:53:00,61.0,61.0,30.15,NE,39,13.0,16.0,99,-99.99,,,-99.99,,2015-07-04 10:53:00,
2015-07-04 04:03:00,61.0,61.0,30.14,NE,37,13.0,17.0,99,-99.99,,,-99.99,,2015-07-04 11:03:00,
2015-07-04 04:13:00,61.0,61.0,30.14,NNE,23,17.0,20.0,99,-99.99,,,-99.99,,2015-07-04 11:13:00,
2015-07-04 04:23:00,61.0,61.0,30.13,NE,42,13.0,16.0,99,-99.99,,,-99.99,,2015-07-04 11:23:00,
2015-07-04 04:33:00,62.0,61.0,30.13,NE,42,15.0,17.0,96,-99.99,,,-99.99,,2015-07-04 11:33:00,
2015-07-04 04:43:00,63.0,59.0,30.13,NE,45,11.0,14.0,88,-99.99,,,-99.99,,2015-07-04 11:43:00,
2015-07-04 04:53:00,63.0,59.0,30.13,North,3,10.0,50.0,88,-99.99,,,-99.99,,2015-07-04 11:53:00,
2015-07-04 05:12:00,64.0,59.0,30.14,NE,47,12.0,13.0,84,-99.99,,,-99.99,,2015-07-04 12:12:00,
2015-07-04 05:23:00,63.0,59.0,30.14,ENE,68,8.0,11.0,87,-99.99,,,-99.99,,2015-07-04 12:23:00,
2015-07-04 05:33:00,63.0,60.0,30.15,ESE,120,5.0,8.0,89,-99.99,,,-99.99,,2015-07-04 12:33:00,
2015-07-04 05:43:00,62.0,59.0,30.15,ENE,65,1.0,1.0,91,-99.99,,,-99.99,,2015-07-04 12:43:00,
2015-07-04 05:53:00,62.0,60.0,30.15,East,90,1.0,2.0,94,-99.99,,,-99.99,,2015-07-04 12:53:00,
2015-07-04 06:03:00,61.0,60.0,30.15,NE,51,1.0,6.0,97,-99.99,,,-99.99,,2015-07-04 13:03:00,
2015-07-04 06:12:00,61.0,61.0,30.16,NE,45,0.0,1.0,99,-99.99,,,-99.99,,2015-07-04 13:12:00,
2015-07-04 06:23:00,61.0,61.0,30.17,NE,44,0.0,1.0,99,-99.99,,,-99.99,,2015-07-04 13:23:00,
2015-07-04 06:33:00,61.0,61.0,30.16,NNE,19,0.0,1.0,99,-99.99,,,-99.99,,2015-07-04 13:33:00,
2015-07-04 06:43:00,61.0,61.0,30.17,NE,45,2.0,7.0,99,-99.99,,,-99.99,,2015-07-04 13:43:00,
2015-07-04 06:53:00,61.0,61.0,30.16,NE,38,1.0,5.0,99,-99.99,,,-99.99,,2015-07-04 13:53:00,
2015-07-04 07:02:00,61.0,61.0,30.17,NE,45,2.0,6.0,99,-99.99,,,-99.99,,2015-07-04 14:02:00,
2015-07-04 07:12:00,62.0,62.0,30.17,NE,45,2.0,8.0,99,-99.99,,,-99.99,,2015-07-04 14:12:00,
2015-07-04 07:22:00,62.0,62.0,30.17,NE,46,0.0,4.0,99,-99.99,,,-99.99,,2015-07-04 14:22:00,
2015-07-04 07:33:00,62.0,62.0,30.18,NNW,336,1.0,50.0,99,-99.99,,,-99.99,,2015-07-04 14:33:00,
2015-07-04 07:43:00,62.0,62.0,30.18,East,90,0.0,1.0,99,-99.99,,,-99.99,,2015-07-04 14:43:00,
2015-07-04 08:02:00,63.0,63.0,30.19,ENE,78,8.0,12.0,99,-99.99,,,-99.99,,2015-07-04 15:02:00,